Regional Weather Roundup
Issued by NWS

Home | Current Version | Previous Version | Graphics & Text | Print | Product List | Glossary On
Versions: 1 2 3 4 5 6 7 8 9 10 11 12 13 14 15 16 17 18 19 20 21 22 23 24 25 26 27 28 29 30 31 32 33 34 35 36 37 38 39 40 41 42 43 44 45 46 47 48 49 50
000
ASUS43 KBIS 240710
RWRND

NORTH DAKOTA REGIONAL WEATHER ROUNDUP
NATIONAL WEATHER SERVICE BISMARCK ND
200 AM CDT THU JUL 24 2014

NOTE: "FAIR" INDICATES FEW OR NO CLOUDS BELOW 12,000 FEET WITH NO
SIGNIFICANT WEATHER AND/OR OBSTRUCTIONS TO VISIBILITY.


NDZ001>003-009>011-017-240800-
NORTHWEST NORTH DAKOTA

CITY           SKY/WX    TMP DP  RH WIND       PRES   REMARKS
WILLISTON      MOCLDY    74  58  57 SE12      29.95F
MINOT          PTCLDY    64  61  90 SE10      30.05F
MINOT AFB      PTCLDY    63  63 100 SE8       30.05F
$$

NDZ018>021-031>035-040>046-240800-
SOUTHWEST NORTH DAKOTA

CITY           SKY/WX    TMP DP  RH WIND       PRES   REMARKS
BISMARCK       CLEAR     65  57  75 E10       30.08S
DICKINSON      CLEAR     66  56  70 SE17      29.98F
GARRISON         N/A     67  60  78 SE13      30.05F
HETTINGER ARPT PTCLDY    67  54  63 SE18G28   29.99F
$$

NDZ004>008-012>016-024-026-027-054-240800-
NORTHEAST NORTH DAKOTA

CITY           SKY/WX    TMP DP  RH WIND       PRES   REMARKS
GRAND FORKS    CLEAR     59  57  93 CALM      30.14F
GRND FRKS AFB  CLEAR     60  60 100 S2        30.16F
DEVILS LAKE    PTCLDY    63  55  77 SE12      30.13S
$$

NDZ022-023-025-028>030-036>039-047>053-240800-
SOUTHEAST NORTH DAKOTA

CITY           SKY/WX    TMP DP  RH WIND       PRES   REMARKS
FARGO          CLEAR     63  58  83 E6        30.15S
JAMESTOWN      CLEAR     63  58  83 SE9       30.14F
$$




USA.gov is the U.S. government's official web portal to all federal, state and local government web resources and services.